Showing default

MUSAT2, 59099

Orbit data source: Space-Track

MUSAT2, 59099 is a payload satellite owned by Muon Space (US) in SSO that was launched on Mon, 04 Mar 2024 UTC via an FALCON 9 launch vehicle from the Air Force Western Test Range (AFWTR). Payload-class satellites include a variety of spacecraft equipped with specific instruments for various scientific and technological missions. These include communications satellites like Starlink; space stations such as the ISS; scientific satellites like the Hubble; Earth observation satellites from companies like Planet Labs, Umbra, and HawkEye 360; GPS; miniature CubeSats for education and research; and military/defense satellites.

Loading next visibility...
Identifier
59099, 2024-043B
Orbit
SSO
Country
Flag of USUS
Related business
Manufacturer
Muon Space
Mission
Operational Commercial Imaging
Bus & Motor
MUON, Unknown motor
Mass
67 kg wet, 67 kg dry
Launch date (UTC)
2024-03-04 (2 years ago)
Launch vehicle
FALCON 9
Launch site
Air Force Western Test Range (AFWTR)
Object type
Payload
Rocket body
Debris
Shape & HBR
Box, 0.3 m
Radar Cross Section
0.195 m², Medium (>0.1 m² and < 1m²)

Expand to show TLE details & history
Last TLE update: 1 day ago

TLE from 1 day ago
0 MUSAT2
1 59099U 24043B   25288.31349199  .00010758  00000-0  78029-3 0  9999
2 59099  97.8300  57.5078 0008092  86.1249 274.0901 15.04081575 88221
Epoch: 2025-10-15T07:31Z
TLE epoch observation values (Epoch: 2025-10-15T07:31:25.707Z)
Latitude
-0.00008°
Longitude
-79.43866°
Altitude
556.987 km
Speed
7.583 km/s
True Right ascension
03h 50m 01s
True Declination
0° 00' 00"
Sunlit
Object was in full shadow at epoch
Visualization orbit readout
Latitude
Unknown
Longitude
Unknown
Altitude
Unknown
Speed
Unknown
Apparent Right ascension
Unknown
Apparent Declination
Unknown
Sunlit
N/A
Visualization observer readout
Local Sidereal Time
08:20:31
Azimuth
Unknown
Elevation
Unknown
Doppler factor
Unknown
Orbital elements
Apogee altitude
556.939 km
Perigee altitude
545.725 km
Semi-major axis
6,929.469 km
Eccentricity
0.00081
Inclination
97.83°
RAAN
57.5078°
Arg. of periapsis
86.1249°
True anomaly
273.9976°
Mean anomaly
274.0901°
Eccentric anomaly
274.04385°
Mean motion
3.76264 °/min
Orbital period
95.68 mins
BSTAR
0.00078029
Loading maneuver chart data...
Computing Atmospheric mass density...
Loading historical data...
Loading historical data...
Loading historical data...
Loading historical data...
Loading historical data...
Loading historical data...
Loading historical data...

Documentation

Showing up to 5 results
|